Regional Weather Roundup
Issued by NWS

Home | Current Version | Previous Version | Text Only | Print | Product List | Glossary On
Versions: 1 2 3 4 5 6 7 8 9 10 11 12 13 14 15 16 17 18 19 20 21 22 23 24 25 26 27 28 29 30 31 32 33 34 35 36 37 38 39 40 41 42 43 44 45 46 47 48 49 50
210
ASUS43 KBIS 191902
RWRND

NORTH DAKOTA REGIONAL WEATHER ROUNDUP
NATIONAL WEATHER SERVICE BISMARCK ND
200 PM CDT SAT AUG 19 2017

NOTE: "FAIR" INDICATES FEW OR NO CLOUDS BELOW 12,000 FEET WITH NO
SIGNIFICANT WEATHER AND/OR OBSTRUCTIONS TO VISIBILITY.


NDZ001>003-009>011-017-192000-
NORTHWEST NORTH DAKOTA

CITY           SKY/WX    TMP DP  RH WIND       PRES   REMARKS
WILLISTON      CLOUDY    85  47  26 W15       29.75S
MINOT          SUNNY     86  58  38 S10       29.68F
MINOT AFB      MOSUNNY   84  57  39 SW9       29.66F
$$

NDZ018>021-031>035-040>046-192000-
SOUTHWEST NORTH DAKOTA

CITY           SKY/WX    TMP DP  RH WIND       PRES   REMARKS
BISMARCK       SUNNY     84  62  47 S10       29.75F
DICKINSON      MOSUNNY   85  47  26 NW18      29.79S
GARRISON         N/A     83  58  42 SW12      29.72S
HETTINGER ARPT SUNNY     88  45  22 NW15      29.82S
$$

NDZ004>008-012>016-024-026-027-054-192000-
NORTHEAST NORTH DAKOTA

CITY           SKY/WX    TMP DP  RH WIND       PRES   REMARKS
GRAND FORKS    MOSUNNY   86  61  42 S16G24    29.76F
GRND FRKS AFB  SUNNY     84  59  41 SW14      29.77F
DEVILS LAKE    SUNNY     83  58  42 S22       29.74F
$$

NDZ022-023-025-028>030-036>039-047>053-192000-
SOUTHEAST NORTH DAKOTA

CITY           SKY/WX    TMP DP  RH WIND       PRES   REMARKS
FARGO          SUNNY     82  61  48 S16       29.82F
JAMESTOWN      SUNNY     81  61  50 S17       29.79F
$$





USA.gov is the U.S. government's official web portal to all federal, state and local government web resources and services.